Location: Unspecified
(0.0000°N, 0.0000°E)
Time: 23:58:29
(UTC+00:00)

Vanguard 1 Rocket - Visible Passes

Search period start: 19 November 2019 00:00
Search period end: 29 November 2019 00:00
Orbit: 651 x 4226 km, 34.3° (Epoch: 18 November)

Date Brightness Start Highest point End Pass type
(mag) Time Alt. Az. Time Alt. Az. Time Alt. Az.
19 Nov 10.5 19:21:57 10° SW 19:39:00 27° SSE 19:47:38 16° ESE visible
19 Nov 10.1 21:55:04 10° SW 22:04:54 37° SSW 22:04:54 37° SSW visible
20 Nov 11.0 18:04:54 10° SW 18:22:36 23° S 18:35:29 10° ESE visible
20 Nov 9.7 20:39:47 10° SW 20:57:29 44° SSE 20:57:38 44° SSE visible
20 Nov 11.0 23:13:01 10° WSW 23:14:54 14° WSW 23:14:54 14° WSW visible
21 Nov 10.2 19:24:04 10° SW 19:43:01 33° SSE 19:50:22 22° ESE visible
21 Nov 10.1 21:57:24 10° SW 22:07:39 40° SW 22:07:39 40° SW visible
22 Nov 10.8 18:07:43 10° SW 18:27:03 27° SSE 18:40:30 10° ESE visible
22 Nov 9.5 20:41:48 10° SW 21:00:25 56° SSE 21:00:25 56° SSE visible
22 Nov 11.1 23:16:19 10° WSW 23:17:42 13° WSW 23:17:42 13° WSW visible
23 Nov 10.0 19:26:05 10° SW 19:46:46 41° SSE 19:53:12 30° ESE visible
23 Nov 10.1 21:59:59 10° WSW 22:10:29 40° WSW 22:10:29 40° WSW visible
24 Nov 10.7 18:10:10 10° SW 18:31:12 32° SSE 18:45:13 10° ESE visible
24 Nov 9.3 20:43:57 10° SW 21:03:17 71° SSE 21:03:17 71° SSE visible
24 Nov 11.2 23:20:06 10° W 23:20:34 11° W 23:20:34 11° W visible
25 Nov 9.7 19:28:07 10° SW 19:50:15 52° SSE 19:56:07 37° E visible
25 Nov 10.2 22:02:53 10° WSW 22:13:24 37° W 22:13:24 37° W visible
26 Nov 10.6 18:12:24 10° SW 18:35:03 39° SSE 18:48:58 12° E visible
26 Nov 9.3 20:46:18 10° SW 21:06:15 83° SW 21:06:15 83° SW visible
27 Nov 9.5 19:30:11 10° SW 19:53:30 64° SSE 19:59:07 44° E visible
27 Nov 10.3 22:06:11 10° WSW 22:16:25 33° W 22:16:25 33° W visible
28 Nov 10.4 18:14:32 10° SW 18:38:36 48° SSE 18:52:00 15° E visible
28 Nov 9.4 20:48:53 10° WSW 21:09:18 73° NW 21:09:18 73° NW visible
